User: anonymous   Login
Location: Knowlton
(51.2333°N, 1.2667°E)
Time: 01:12:02
(UTC+00:00)
Language:

NOSS 7 (E) - Orbit

View from above orbital plane
View from above orbital plane
View from above satellite
View from above satellite

Ground track
Ground track

The orbit data is extracted from the following two-line orbital elements,

1 16624U 86014E   21174.54611030  .00000899  00000-0  92608-4 0  9998
2 16624  63.2992 305.2332 0931237  82.5599 288.0127 13.47044366101821
Epoch (UTC): 23 June 2021 13:06:23
Eccentricity: 0.0931237
inclination: 63.2992°
perigee height: 388 km
apogee height: 1778 km
right ascension of ascending node: 305.2332°
argument of perigee: 82.5599°
revolutions per day: 13.47044366
mean anomaly at epoch: 288.0127°
orbit number at epoch: 10182

The dashed part of the orbit path shows where the satellite is in the earth's shadow,  

DLR